User: anonymous   Login
Location: Holcomb Observatory
(44.4922°N, 73.1654°W)
Time: 03:36:24
(UTC-05:00)
Language:

SL-16 R/B - Orbit

View from above orbital plane
View from above orbital plane
View from above satellite
View from above satellite

Ground track
Ground track

The orbit data is extracted from the following two-line orbital elements,

1 27006U 01056F   16037.90642775 -.00000046  00000-0 -40682-5 0  9991
2 27006  99.2369 190.3032 0014944 161.4012 352.6704 13.70970660708494
Epoch (UTC): 06 February 2016 21:45:15
Eccentricity: 0.0014944
inclination: 99.2369°
perigee height: 985 km
apogee height: 1007 km
right ascension of ascending node: 190.3032°
argument of perigee: 161.4012°
revolutions per day: 13.70970660
mean anomaly at epoch: 352.6704°
orbit number at epoch: 70849

The dashed part of the orbit path shows where the satellite is in the earth's shadow,  

DLR